• In Hungary
  • List of Countries
  • For 7 days
  • Water Temperature
  • Satellite Maps
  • Weather Map
  • News
  • Weather Widgets
  • user-avatar
    Login

    Hourly Weather Summerville

    Today, 19 January, Friday

    Time Temperature Precipitation Wind Pressure Humidity
    00:00 +1°C° 0 mm 2 mps 767 mmHg 50%
    01:00 -1°C° 0 mm 2 mps 767 mmHg 51%
    02:00 -1°C° 0 mm 2 mps 767 mmHg 51%
    03:00 -1°C° 0 mm 2 mps 766 mmHg 51%
    04:00 -1°C° 0 mm 2 mps 766 mmHg 51%
    05:00 -1°C° 0 mm 2 mps 766 mmHg 51%
    06:00 -1°C° 0 mm 2 mps 767 mmHg 51%
    07:00 -1°C° 0 mm 2 mps 767 mmHg 51%
    08:00 +1°C° 0 mm 2 mps 767 mmHg 46%
    09:00 +3°C° 0 mm 2 mps 767 mmHg 41%
    10:00 +5°C° 0 mm 2 mps 767 mmHg 37%
    11:00 +7°C° 0 mm 2 mps 767 mmHg 34%
    12:00 +10°C° 0 mm 2 mps 766 mmHg 31%
    13:00 +12°C° 0 mm 3 mps 766 mmHg 29%
    14:00 +13°C° 0 mm 2 mps 766 mmHg 31%
    15:00 +13°C° 0 mm 2 mps 765 mmHg 32%
    16:00 +14°C° 0 mm 2 mps 765 mmHg 34%
    17:00 +10°C° 0 mm 2 mps 765 mmHg 40%
    18:00 +8°C° 0 mm 2 mps 765 mmHg 46%
    19:00 +6°C° 0 mm 2 mps 765 mmHg 53%
    20:00 +5°C° 0 mm 2 mps 765 mmHg 54%
    21:00 +5°C° 0 mm 2 mps 766 mmHg 56%
    22:00 +4°C° 0 mm 2 mps 766 mmHg 58%
    23:00 +4°C° 0 mm 2 mps 766 mmHg 58%

    Tomorrow, 20 January, Saturday

    Time Temperature Precipitation Wind Pressure Humidity
    00:00 +3°C° 0 mm 2 mps 766 mmHg 59%
    01:00 +3°C° 0 mm 2 mps 766 mmHg 59%
    02:00 +3°C° 0 mm 2 mps 766 mmHg 59%
    03:00 +3°C° 0 mm 2 mps 765 mmHg 59%
    04:00 +2°C° 0 mm 2 mps 765 mmHg 59%
    05:00 +2°C° 0 mm 2 mps 765 mmHg 59%
    06:00 +2°C° 0 mm 2 mps 766 mmHg 59%
    07:00 +2°C° 0 mm 2 mps 766 mmHg 60%
    08:00 +4°C° 0 mm 2 mps 766 mmHg 54%
    09:00 +6°C° 0 mm 2 mps 766 mmHg 49%
    10:00 +8°C° 0 mm 2 mps 767 mmHg 43%
    11:00 +10°C° 0 mm 2 mps 766 mmHg 39%
    12:00 +13°C° 0 mm 2 mps 766 mmHg 35%
    13:00 +14°C° 0 mm 3 mps 766 mmHg 30%
    14:00 +16°C° 0 mm 3 mps 765 mmHg 32%
    15:00 +16°C° 0 mm 3 mps 765 mmHg 33%
    16:00 +16°C° 0 mm 3 mps 765 mmHg 34%
    17:00 +13°C° 0 mm 3 mps 765 mmHg 40%
    18:00 +12°C° 0 mm 2 mps 765 mmHg 45%
    19:00 +9°C° 0 mm 2 mps 766 mmHg 51%
    20:00 +9°C° 0 mm 2 mps 766 mmHg 53%
    21:00 +8°C° 0 mm 2 mps 766 mmHg 55%
    22:00 +8°C° 0 mm 2 mps 766 mmHg 57%
    23:00 +7°C° 0 mm 2 mps 766 mmHg 59%

    Day after tomorrow, 21 January, Sunday

    Time Temperature Precipitation Wind Pressure Humidity
    00:00 +7°C° 0 mm 2 mps 766 mmHg 60%
    01:00 +7°C° 0 mm 2 mps 766 mmHg 62%
    02:00 +7°C° 0 mm 2 mps 766 mmHg 65%
    03:00 +7°C° 0 mm 1 mps 765 mmHg 69%
    04:00 +7°C° 0 mm 1 mps 765 mmHg 72%
    05:00 +7°C° 0 mm 1 mps 766 mmHg 76%
    06:00 +7°C° 0 mm 1 mps 766 mmHg 80%
    07:00 +7°C° 0 mm 1 mps 766 mmHg 84%
    08:00 +9°C° 0 mm 1 mps 766 mmHg 77%
    09:00 +10°C° 0 mm 0 mps 767 mmHg 70%
    10:00 +12°C° 0 mm 0 mps 767 mmHg 64%
    11:00 +14°C° 0 mm 0 mps 767 mmHg 59%
    12:00 +18°C° 0 mm 1 mps 766 mmHg 54%
    13:00 +20°C° 0 mm 1 mps 766 mmHg 49%
    14:00 +20°C° 0 mm 1 mps 766 mmHg 49%
    15:00 +20°C° 0 mm 1 mps 765 mmHg 50%
    16:00 +20°C° 0 mm 1 mps 765 mmHg 50%
    17:00 +18°C° 0 mm 1 mps 765 mmHg 56%
    18:00 +15°C° 0 mm 1 mps 765 mmHg 63%
    19:00 +13°C° 0 mm 1 mps 766 mmHg 69%
    20:00 +12°C° 0 mm 1 mps 766 mmHg 69%
    21:00 +11°C° 0 mm 1 mps 766 mmHg 70%
    22:00 +11°C° 0 mm 1 mps 766 mmHg 70%
    23:00 +10°C° 0 mm 1 mps 766 mmHg 69%

    22 January, Monday

    Time Temperature Precipitation Wind Pressure Humidity
    00:00 +10°C° 0 mm 1 mps 765 mmHg 69%
    01:00 +10°C° 0 mm 1 mps 765 mmHg 69%
    02:00 +9°C° 0 mm 1 mps 765 mmHg 68%
    03:00 +8°C° 0 mm 0 mps 765 mmHg 68%
    04:00 +8°C° 0 mm 0 mps 765 mmHg 68%
    05:00 +8°C° 0 mm 0 mps 765 mmHg 68%
    06:00 +9°C° 0 mm 1 mps 765 mmHg 68%
    07:00 +9°C° 0 mm 1 mps 765 mmHg 68%
    08:00 +11°C° 0 mm 1 mps 765 mmHg 61%
    09:00 +13°C° 0 mm 1 mps 765 mmHg 55%
    10:00 +15°C° 0 mm 1 mps 765 mmHg 49%
    11:00 +17°C° 0 mm 2 mps 765 mmHg 49%
    12:00 +18°C° 0 mm 2 mps 764 mmHg 50%
    13:00 +20°C° 0 mm 3 mps 763 mmHg 51%
    14:00 +20°C° 0 mm 3 mps 763 mmHg 56%
    15:00 +20°C° 0 mm 4 mps 762 mmHg 61%
    16:00 +20°C° 0 mm 4 mps 762 mmHg 66%
    17:00 +19°C° 0 mm 4 mps 762 mmHg 74%
    18:00 +17°C° 0 mm 4 mps 762 mmHg 82%
    19:00 +16°C° 0 mm 3 mps 762 mmHg 90%
    20:00 +16°C° 0 mm 3 mps 762 mmHg 92%
    21:00 +14°C° 0 mm 4 mps 761 mmHg 93%
    22:00 +14°C° 0 mm 4 mps 761 mmHg 95%
    23:00 +15°C° 0 mm 4 mps 761 mmHg 94%

    23 January, Tuesday

    Time Temperature Precipitation Wind Pressure Humidity
    00:00 +15°C° 0 mm 4 mps 760 mmHg 93%
    01:00 +15°C° 0 mm 5 mps 760 mmHg 92%
    02:00 +16°C° 0.2 mm 5 mps 760 mmHg 92%
    03:00 +16°C° 0.2 mm 5 mps 760 mmHg 93%
    04:00 +16°C° 0.2 mm 5 mps 759 mmHg 94%
    05:00 +17°C° 0.2 mm 4 mps 760 mmHg 91%
    06:00 +15°C° 0.2 mm 4 mps 760 mmHg 89%
    07:00 +15°C° 0.2 mm 4 mps 761 mmHg 87%
    08:00 +14°C° 0 mm 4 mps 761 mmHg 76%
    09:00 +13°C° 0 mm 4 mps 762 mmHg 66%
    10:00 +13°C° 0 mm 4 mps 763 mmHg 56%
    11:00 +14°C° 0 mm 4 mps 762 mmHg 50%
    12:00 +15°C° 0 mm 4 mps 762 mmHg 43%
    13:00 +17°C° 0 mm 4 mps 762 mmHg 37%
    14:00 +17°C° 0 mm 4 mps 762 mmHg 36%
    15:00 +17°C° 0 mm 4 mps 762 mmHg 35%
    16:00 +17°C° 0 mm 4 mps 762 mmHg 34%
    17:00 +16°C° 0 mm 3 mps 762 mmHg 39%
    18:00 +13°C° 0 mm 3 mps 763 mmHg 43%
    19:00 +12°C° 0 mm 2 mps 763 mmHg 48%
    20:00 +10°C° 0 mm 2 mps 764 mmHg 50%
    21:00 +10°C° 0 mm 2 mps 764 mmHg 52%
    22:00 +9°C° 0 mm 2 mps 764 mmHg 54%
    23:00 +8°C° 0 mm 2 mps 765 mmHg 56%

    24 January, Wednesday

    Time Temperature Precipitation Wind Pressure Humidity
    00:00 +7°C° 0 mm 2 mps 765 mmHg 58%
    01:00 +7°C° 0 mm 2 mps 765 mmHg 60%
    02:00 +6°C° 0 mm 2 mps 765 mmHg 62%
    03:00 +6°C° 0 mm 2 mps 765 mmHg 64%
    04:00 +5°C° 0 mm 2 mps 765 mmHg 66%
    05:00 +5°C° 0 mm 2 mps 766 mmHg 69%
    06:00 +5°C° 0 mm 2 mps 766 mmHg 71%
    07:00 +4°C° 0 mm 2 mps 767 mmHg 73%
    08:00 +6°C° 0 mm 2 mps 767 mmHg 67%
    09:00 +8°C° 0 mm 2 mps 767 mmHg 60%
    10:00 +9°C° 0 mm 2 mps 768 mmHg 54%
    11:00 +12°C° 0 mm 2 mps 768 mmHg 49%
    12:00 +14°C° 0 mm 2 mps 767 mmHg 43%
    13:00 +16°C° 0 mm 2 mps 767 mmHg 38%
    14:00 +16°C° 0 mm 2 mps 767 mmHg 38%
    15:00 +16°C° 0 mm 2 mps 767 mmHg 38%
    16:00 +16°C° 0 mm 2 mps 767 mmHg 38%
    17:00 +14°C° 0 mm 2 mps 767 mmHg 44%
    18:00 +13°C° 0 mm 2 mps 767 mmHg 49%
    19:00 +10°C° 0 mm 2 mps 767 mmHg 54%
    20:00 +10°C° 0 mm 2 mps 767 mmHg 57%
    21:00 +10°C° 0 mm 1 mps 767 mmHg 59%
    22:00 +10°C° 0 mm 1 mps 768 mmHg 62%
    23:00 +9°C° 0 mm 1 mps 767 mmHg 62%
    Show more